Погода в Лойкербаде

Швейцария     46°22′33″N   7°37′30″E
темп.,
°C
ветер,
м/с
пор.,
м/с
влажн.,
%
обл.,
%
осадки,
мм/ч
давл.,
гПа
погр.,
м
26 февраля, пт
пт2601:00−1юв12390 0.0 103222
04:00−2юв114037 0.0 103222
07:00−2вюв115062 0.0 103222
10:00+3з009160 0.0 103151
13:00+3с119142 0.0 1029196
16:00+2с229279 0.0 1028168
19:00−1св128490 0.0 102921
22:00−1всв227298 0.0 103021
27 февраля, сб
сб2701:00−4св237863 0.0 103023
04:00−4св338821 0.0 102939
07:00−4св238428 0.0 102926
10:00+1св22923 0.0 1029138
13:00+1св229611 0.0 1028186
16:00+1всв129867 0.0 1028134
19:00−4вюв228556 0.0 102946
22:00−4юв22840 0.0 103122
28 февраля, вс
вс2801:00−4юв33820 0.0 103126
04:00−4юв23780 0.0 103124
07:00−5ююв12700 0.0 103121
10:00+1з01790 0.0 1030115
13:00+2ссз11870 0.0 1029364
16:00+1с22870 0.0 1028329
19:00−3св12890 0.0 102922
22:00−5вюв12700 0.0 103022
1 марта, пн
пн101:00−5вюв126613 0.0 103022
04:00−5вюв12621 0.0 102922
07:00−5юв12631 0.0 103023
10:000ю11620 0.0 1029154
13:00+1ю117219 0.0 1029482
16:00+1ю117398 0.0 1027284
19:00−4юв337087 0.0 102928
22:00−5юв33672 0.0 103235
2 марта, вт
вт201:00−4юв33591 0.0 103227
04:00−4юв22514 0.0 103223
07:00−4юв22454 0.0 103222
10:00+2ю11610 0.0 103295
13:00+3зсз01680 0.0 1031380
16:00+3с01760 0.0 1030335
19:00−2юв12670 0.0 103222
22:00−2юв22490 0.0 103323